[[{"header":{"parameterUnit":"m.s-1","parameterCategory":1,"la1":30.2991,"la2":30.254,"lo1":-89.0895,"lo2":-89.0444,"dy":0.0017,"dx":0.0017,"nx":28,"ny":28,"refTime":"2024-05-08T21:00:00:Z","depth":0,"parameterNumber":2,"parameterNumberName":"U-component_of_WINDS"},"data":[0,0,0,0,0,0,0,0,0,0,0,0,0,0,0,0,0,0,0,0,0,0,0,0,0,0,0,0,0,0,0,0,0,0,0,0,0,0,0,0,0,0,0,0,0,0,0,0,0,0,0,0,0,0,0,0,0,0,3.567,3.5671,0,3.5762,3.5763,3.5764,3.5717,3.5715,3.5712,3.571,3.5804,3.5808,3.5813,0,0,0,0,0,0,0,0,0,0,0,0,0,3.5451,3.5455,3.567,3.5671,3.5672,3.5762,3.5763,3.5765,3.5718,3.5715,3.5712,3.5709,3.5802,3.5808,3.5813,0,0,0,0,0,0,0,0,0,0,0,0,0,3.5545,3.5457,3.567,3.566,3.566,3.5762,3.5763,3.5765,3.5718,3.5715,3.5711,3.5708,3.58,3.5807,3.5814,3.5931,0,0,3.5836,3.5839,0,0,0,0,0,0,0,0,3.554,3.5553,3.566,3.566,3.5661,3.5724,3.572,3.5821,3.5719,3.5696,3.571,3.5706,3.578,3.5789,3.5814,3.5936,3.594,3.5837,3.5841,3.5844,3.5846,0,0,0,0,0,0,0,3.5533,3.5549,3.5706,3.5661,3.5662,3.565,3.5659,3.5739,3.5757,3.5698,3.5694,3.5706,3.578,3.5807,3.5816,3.5941,3.5836,3.5843,3.5847,3.585,3.6161,3.6165,0,0,0,0,0,0,3.5528,3.5544,3.5703,3.5709,3.559,3.5657,3.5667,3.5708,3.5756,3.576,3.5709,3.5704,3.5797,3.5808,3.5819,3.5958,3.5844,3.5851,3.5855,3.6157,3.6162,3.6167,0,0,0,0,0,0,3.5523,3.5542,3.57,3.5626,3.5645,3.5664,3.571,3.5711,3.5739,3.5765,3.5768,3.5734,3.5794,3.5809,3.5903,3.596,3.5854,3.586,3.6153,3.6159,3.6164,3.6237,0,0,0,0,0,0,3.5517,3.5541,3.5586,3.5627,3.5649,3.5783,3.5714,3.5716,3.5751,3.5745,3.5789,3.5793,3.5793,3.5893,3.591,3.5968,3.5866,3.6148,3.6155,3.6163,3.6229,3.6244,3.6257,0,0,0,0,0,3.5509,3.5603,3.5589,3.5608,3.5706,3.5787,3.5799,3.5797,3.5756,3.5801,3.5818,3.5792,3.5952,3.5903,3.5922,3.5983,3.6144,3.6153,3.6162,3.6223,3.6241,3.6257,0,0,0,0,0,0,3.5568,3.5608,3.5593,3.5702,3.5741,3.5778,3.5835,3.5817,3.5868,3.586,3.5855,3.5865,3.5963,3.5983,3.5928,3.6098,3.6041,3.6055,3.6081,3.6099,3.6113,3.6105,3.5872,0,0,0,0,0,3.5594,3.5656,3.5688,3.5782,3.5802,3.5816,3.5851,3.5846,3.5886,3.5902,3.5925,3.5965,3.6024,3.6063,3.6119,3.6232,3.624,3.6284,3.6298,3.6309,3.632,3.638,3.6398,3.6196,3.6196,3.6196,0,0,3.5647,3.5677,3.5717,3.5794,3.5824,3.5888,3.583,3.59,3.5947,3.5913,3.6002,3.6021,3.6065,3.6169,3.6216,3.6189,3.6378,3.632,3.6329,3.6334,3.6391,3.641,3.6427,3.6202,3.6201,3.62,0,0,3.5777,3.5807,3.5887,3.5918,3.5964,3.5972,3.5991,3.6031,3.6042,3.6133,3.6107,3.6163,3.6266,3.6297,3.6327,3.6468,3.6445,3.6487,3.6559,3.6618,3.6633,3.6647,3.6696,3.6714,3.6498,3.6498,3.6498,0,3.5838,3.5934,3.5931,3.6003,3.6037,3.6009,3.609,3.612,3.6181,3.6205,3.6174,3.63,3.6328,3.6438,3.6472,3.6498,3.6519,3.6481,3.6632,3.6646,3.6659,3.6705,3.6723,3.6503,3.6502,3.6502,3.6501,0,3.6005,3.6072,3.6131,3.6191,3.6232,3.6309,3.6316,3.6358,3.635,3.6361,3.6453,3.6485,3.6546,3.6572,3.6565,3.6681,3.6662,3.6632,3.6574,3.6683,3.6726,3.6743,3.6509,3.6508,3.6506,3.6505,0,0,3.6173,3.6231,3.6252,3.6278,3.6327,3.6378,3.6453,3.6512,3.6547,3.6591,3.6652,3.6739,3.6711,3.6744,3.674,3.6792,3.6899,3.6754,3.6755,3.6778,3.7027,3.7048,3.7068,3.6885,3.6888,3.6891,3.7022,0,3.6305,3.6435,3.6435,3.6555,3.6616,3.659,3.6655,3.6691,3.6703,3.6756,3.677,3.6831,3.679,3.681,3.686,3.6876,3.6949,3.6866,3.694,3.6943,3.6928,3.7091,3.7114,3.7236,3.7039,3.7042,3.7044,0,3.6475,3.6524,3.665,3.6689,3.6714,3.6772,3.6826,3.6878,3.6918,3.6924,3.6961,3.6949,3.7023,3.6966,3.7068,3.7012,3.7042,3.7054,3.7059,3.7064,3.6999,3.7099,3.7276,3.7293,3.7071,3.7069,3.7067,0,3.6582,3.668,3.6768,3.6791,3.6839,3.688,3.6901,3.6938,3.6974,3.7021,3.7044,3.7099,3.7129,3.7172,3.7175,3.7133,3.7277,3.722,3.7282,3.7282,3.7312,3.731,3.7494,3.7336,3.7336,3.7335,3.7335,0,3.6728,3.6806,3.6816,3.687,3.6956,3.6955,3.704,3.7057,3.709,3.7146,3.7128,3.718,3.7182,3.7236,3.7239,3.7321,3.7336,3.7341,3.734,3.7342,3.7341,3.736,3.735,3.734,3.7339,3.7338,3.7337,0,3.6861,3.6872,3.6965,3.7003,3.7014,3.7075,3.7107,3.7157,3.7168,3.7239,3.7256,3.7273,3.7335,3.7343,3.7416,3.7418,3.7516,3.7508,3.7503,3.7501,3.7562,3.7555,3.7763,3.7789,3.7616,3.7618,3.7619,0,3.6952,3.7011,3.7055,3.7091,3.7115,3.7174,3.721,3.7211,3.7249,3.7299,3.7343,3.7404,3.7452,3.7553,3.7571,3.7626,3.7617,3.7687,3.7626,3.7624,3.7616,3.7611,3.7616,3.7698,3.77,3.7701,3.7702,0,3.7112,3.7114,3.7167,3.7222,3.7266,3.7309,3.7349,3.738,3.7386,3.743,3.7493,3.7531,3.7605,3.7664,3.7719,3.774,3.7722,3.7722,3.7739,3.7739,3.7732,3.7734,3.7532,3.7716,3.7715,3.7714,3.7713,3.7713,3.7225,3.7276,3.7314,3.7373,3.7404,3.7442,3.7491,3.7509,3.7562,3.7622,3.762,3.7689,3.7726,3.7797,3.7823,3.7876,3.7853,3.7878,3.7884,3.789,3.7895,3.7726,3.7887,3.7886,3.7886,3.7886,3.7885,0,3.7381,3.7405,3.746,3.7517,3.7563,3.7544,3.7587,3.7627,3.7688,3.7725,3.7773,3.7845,3.7903,3.7926,3.7982,3.802,3.8013,3.8035,3.8031,3.8035,3.7913,3.7892,3.804,3.804,3.8039,3.8039,3.8039,3.8039,3.7468,3.7552,3.7559,3.7658,3.768,3.7748,3.7775,3.7809,3.7838,3.792,3.7968,3.7983,3.8014,3.8072,3.8123,3.8129,3.8149,3.8174,3.8175,3.806,3.8044,3.8029,3.8009,3.8179,3.8179,3.8292,3.8294,3.8294]},{"header":{"parameterUnit":"m.s-1","parameterCategory":1,"la1":30.2991,"la2":30.254,"lo1":-89.0895,"lo2":-89.0444,"dy":0.0017,"dx":0.0017,"nx":28,"ny":28,"refTime":"2024-05-08T21:00:00:Z","depth":0,"parameterNumber":3,"parameterNumberName":"V-component_of_WINDS"},"data":[0,0,0,0,0,0,0,0,0,0,0,0,0,0,0,0,0,0,0,0,0,0,0,0,0,0,0,0,0,0,0,0,0,0,0,0,0,0,0,0,0,0,0,0,0,0,0,0,0,0,0,0,0,0,0,0,0,0,3.7883,3.7884,0,3.802,3.8022,3.8023,3.8022,3.802,3.8018,3.8016,3.8151,3.8156,3.8161,0,0,0,0,0,0,0,0,0,0,0,0,0,3.7613,3.7618,3.7883,3.7884,3.7886,3.802,3.8022,3.8024,3.8022,3.802,3.8017,3.8015,3.8149,3.8155,3.8162,0,0,0,0,0,0,0,0,0,0,0,0,0,3.7738,3.7619,3.7882,3.7901,3.7905,3.802,3.8022,3.8024,3.8022,3.802,3.8017,3.8014,3.8147,3.8155,3.8163,3.8266,0,0,3.8187,3.819,0,0,0,0,0,0,0,0,3.7731,3.7748,3.7897,3.79,3.7904,3.8001,3.7976,3.8105,3.8023,3.7977,3.8016,3.8013,3.8103,3.8114,3.8146,3.8272,3.8278,3.8187,3.8192,3.8196,3.8198,0,0,0,0,0,0,0,3.7722,3.7742,3.7937,3.7899,3.7903,3.7901,3.7916,3.8,3.8053,3.7981,3.7981,3.7998,3.8104,3.8138,3.8149,3.828,3.8187,3.8194,3.8199,3.8202,3.8497,3.85,0,0,0,0,0,0,3.771,3.7735,3.7933,3.7941,3.7809,3.7908,3.7925,3.7973,3.8053,3.8062,3.8,3.7997,3.8126,3.814,3.8154,3.828,3.8196,3.8203,3.8207,3.8494,3.8498,3.8501,0,0,0,0,0,0,3.7704,3.7728,3.7927,3.7838,3.7863,3.7916,3.7969,3.7977,3.8011,3.8067,3.8076,3.8026,3.8124,3.8142,3.8238,3.8285,3.8206,3.8214,3.8491,3.8495,3.85,3.8533,0,0,0,0,0,0,3.7697,3.7726,3.7767,3.7839,3.7868,3.8011,3.7972,3.7981,3.8025,3.8023,3.8093,3.8102,3.8124,3.8227,3.8246,3.8294,3.822,3.8487,3.8493,3.8498,3.8528,3.8539,3.8547,0,0,0,0,0,3.7687,3.777,3.7769,3.7793,3.7921,3.8014,3.803,3.8055,3.8029,3.807,3.8106,3.81,3.8276,3.8236,3.8258,3.8309,3.8484,3.8491,3.8498,3.8524,3.8537,3.8547,0,0,0,0,0,0,3.77,3.7779,3.778,3.7889,3.7945,3.8014,3.8066,3.8067,3.8131,3.8126,3.8152,3.8167,3.8263,3.8296,3.825,3.8413,3.8376,3.8388,3.8389,3.8401,3.8411,3.8401,3.8226,0,0,0,0,0,3.7715,3.7786,3.7851,3.7941,3.7969,3.8013,3.8054,3.8069,3.8127,3.815,3.8193,3.8249,3.8316,3.836,3.8426,3.8533,3.8548,3.8579,3.8588,3.8595,3.8605,3.8664,3.8678,3.8524,3.8524,3.8524,0,0,3.7748,3.78,3.7843,3.7945,3.799,3.8061,3.8033,3.8109,3.8162,3.8161,3.8255,3.8289,3.8352,3.8454,3.85,3.8484,3.8651,3.8604,3.861,3.8616,3.8673,3.8687,3.87,3.8529,3.8528,3.8527,0,0,3.7844,3.7891,3.7971,3.8017,3.8087,3.8116,3.8135,3.8204,3.8227,3.8322,3.8323,3.8385,3.8501,3.8546,3.8584,3.8698,3.8694,3.8718,3.8768,3.8825,3.8837,3.8848,3.8888,3.8902,3.8728,3.8728,3.8728,0,3.7875,3.7985,3.8011,3.8089,3.8133,3.8138,3.8218,3.8261,3.8348,3.8377,3.8358,3.8504,3.8547,3.866,3.8687,3.8718,3.874,3.871,3.8833,3.8844,3.8855,3.8894,3.8909,3.873,3.873,3.873,3.8729,0,3.8019,3.8095,3.8151,3.8237,3.8288,3.8366,3.8403,3.845,3.846,3.849,3.8586,3.8638,3.8714,3.8742,3.8751,3.8856,3.8843,3.8828,3.8792,3.8872,3.8909,3.8924,3.8734,3.8733,3.8732,3.8731,0,0,3.8127,3.8228,3.8248,3.8287,3.8365,3.8423,3.85,3.8577,3.8617,3.8676,3.8742,3.8841,3.8827,3.8871,3.8885,3.8935,3.9022,3.8914,3.8916,3.8932,3.9139,3.9151,3.9168,3.902,3.9023,3.9025,3.9134,0,3.8231,3.8373,3.8399,3.8521,3.8591,3.8597,3.8664,3.8718,3.8748,3.881,3.8842,3.8912,3.8889,3.8916,3.8965,3.9001,3.9063,3.8993,3.9079,3.9082,3.9064,3.9187,3.9199,3.93,3.9149,3.9151,3.9153,0,3.8372,3.8438,3.8567,3.8636,3.8666,3.8727,3.88,3.8859,3.892,3.8938,3.8987,3.8996,3.9075,3.9035,3.9144,3.9095,3.9132,3.9155,3.9159,3.9168,3.9123,3.9199,3.9332,3.9348,3.9176,3.9174,3.9172,0,3.8438,3.8558,3.8652,3.8685,3.8767,3.881,3.8845,3.8904,3.8948,3.9011,3.9039,3.9109,3.9148,3.9201,3.9228,3.9196,3.9335,3.9297,3.9351,3.935,3.938,3.9378,3.9521,3.9403,3.9403,3.9403,3.9402,0,3.8552,3.8631,3.8682,3.874,3.8828,3.8857,3.8943,3.8978,3.903,3.9092,3.91,3.9159,3.9191,3.9253,3.9274,3.9361,3.9378,3.9394,3.9399,3.9394,3.9392,3.9418,3.9412,3.9407,3.9406,3.9405,3.9404,0,3.864,3.8678,3.878,3.885,3.887,3.8932,3.8991,3.9046,3.9076,3.9155,3.9175,3.9222,3.9296,3.9328,3.9419,3.9433,3.9532,3.9532,3.9513,3.9515,3.9567,3.9562,3.9732,3.9756,3.9622,3.9624,3.9625,0,3.871,3.8772,3.8849,3.8893,3.8931,3.9001,3.9047,3.9077,3.9125,3.9199,3.9244,3.9319,3.9381,3.9499,3.9539,3.9608,3.9609,3.9664,3.962,3.9613,3.961,3.9607,3.9613,3.9672,3.9674,3.9675,3.9676,0,3.8831,3.8847,3.8915,3.8989,3.9044,3.9104,3.9161,3.9196,3.9235,3.9287,3.9365,3.9413,3.9506,3.958,3.9652,3.9686,3.9687,3.969,3.9706,3.9701,3.9688,3.9696,3.9535,3.9686,3.9685,3.9684,3.9683,3.9683,3.8913,3.8968,3.9032,3.9106,3.9153,3.9208,3.9263,3.9301,3.9367,3.9447,3.946,3.9542,3.96,3.9697,3.9735,3.9798,3.9784,3.9807,3.9813,3.9819,3.9822,3.9678,3.9811,3.9811,3.981,3.981,3.981,0,3.9034,3.9076,3.9144,3.9226,3.9285,3.9283,3.9347,3.9395,3.9469,3.9524,3.9585,3.9674,3.9745,3.9792,3.9864,3.9906,3.9908,3.9923,3.9921,3.9929,3.983,3.981,3.9921,3.9921,3.992,3.992,3.992,3.992,3.9104,3.9198,3.9221,3.9338,3.9378,3.9461,3.9497,3.9547,3.9591,3.9691,3.9751,3.9782,3.9833,3.9909,3.9974,3.9986,4.0012,4.0029,4.0039,3.9947,3.9935,3.9924,3.9905,4.0034,4.0034,4.0132,4.0133,4.0134]}]]